Wetterdaten: Donnerstag, 23.07.2015
Datum Zeit Auen-Temp. Temp gefhlt Luftfeuchte Luftdruck Regen Wind Richtung Richtung Taupunkt Windben
23.07.2015 00:00 18,9 C 18,9 C 73 % 1011,2 hPa 0,0 mm 0,0 km/h (0 Bft) N-NW 337 13,9 C 0,0 km/h (0 Bft)
23.07.2015 00:05 18,9 C 18,9 C 73 % 1011,2 hPa 0,0 mm 0,0 km/h (0 Bft) N-NW 337 13,9 C 0,0 km/h (0 Bft)
23.07.2015 00:10 18,8 C 19,0 C 73 % 1011,1 hPa 0,0 mm 0,0 km/h (0 Bft) O-SO 112 13,9 C 0,0 km/h (0 Bft)
23.07.2015 00:15 18,9 C 19,0 C 73 % 1011,1 hPa 0,0 mm 0,3 km/h (0 Bft) N-NO 22 13,9 C 2,8 km/h (1 Bft)
23.07.2015 00:20 19,3 C 19,4 C 72 % 1011,1 hPa 0,0 mm 1,6 km/h (1 Bft) O 90 14,1 C 4,1 km/h (1 Bft)
23.07.2015 00:25 19,4 C 19,5 C 72 % 1011,1 hPa 0,0 mm 2,3 km/h (1 Bft) O 90 14,2 C 5,2 km/h (1 Bft)
23.07.2015 00:30 19,3 C 19,7 C 71 % 1010,4 hPa 0,0 mm 1,8 km/h (1 Bft) NO 45 13,9 C 0,0 km/h (0 Bft)
23.07.2015 00:35 19,4 C 19,7 C 71 % 1010,4 hPa 0,0 mm 0,8 km/h (0 Bft) W 270 14,0 C 0,0 km/h (0 Bft)
23.07.2015 00:40 19,6 C 19,9 C 70 % 1010,4 hPa 0,0 mm 1,3 km/h (1 Bft) SO 135 14,0 C 0,0 km/h (0 Bft)
23.07.2015 00:45 19,5 C 20,0 C 69 % 1010,4 hPa 0,0 mm 1,3 km/h (1 Bft) NO 45 13,7 C 3,6 km/h (1 Bft)
23.07.2015 00:50 19,7 C 19,9 C 69 % 1010,6 hPa 0,0 mm 1,6 km/h (1 Bft) N-NO 22 13,8 C 4,9 km/h (1 Bft)
23.07.2015 00:55 19,6 C 19,9 C 68 % 1010,6 hPa 0,0 mm 1,3 km/h (1 Bft) O-NO 67 13,5 C 0,0 km/h (0 Bft)
23.07.2015 01:00 19,8 C 19,8 C 68 % 1010,6 hPa 0,0 mm 3,4 km/h (1 Bft) W-NW 292 13,7 C 19,4 km/h (3 Bft)
23.07.2015 01:05 19,6 C 19,7 C 67 % 1010,6 hPa 0,0 mm 3,9 km/h (1 Bft) W-SW 247 13,3 C 0,0 km/h (0 Bft)
23.07.2015 01:10 19,4 C 19,4 C 68 % 1010,8 hPa 0,0 mm 3,1 km/h (1 Bft) W 270 13,3 C 0,0 km/h (0 Bft)
23.07.2015 01:15 19,0 C 19,1 C 68 % 1010,8 hPa 0,0 mm 2,1 km/h (1 Bft) NW 315 13,0 C 0,0 km/h (0 Bft)
23.07.2015 01:20 18,6 C 18,6 C 70 % 1010,8 hPa 0,0 mm 0,5 km/h (0 Bft) SW 225 13,0 C 3,9 km/h (1 Bft)
23.07.2015 01:25 18,6 C 18,5 C 71 % 1010,8 hPa 0,0 mm 0,8 km/h (0 Bft) S 180 13,2 C 3,4 km/h (1 Bft)
23.07.2015 01:30 18,3 C 18,2 C 71 % 1010,8 hPa 0,0 mm 0,8 km/h (0 Bft) S-SW 202 12,9 C 0,0 km/h (0 Bft)
23.07.2015 01:35 18,3 C 18,2 C 72 % 1010,8 hPa 0,0 mm 0,3 km/h (0 Bft) S-SO 157 13,2 C 0,0 km/h (0 Bft)
23.07.2015 01:40 17,9 C 17,8 C 72 % 1010,8 hPa 0,0 mm 0,0 km/h (0 Bft) S 180 12,8 C 0,0 km/h (0 Bft)
23.07.2015 01:45 17,7 C 17,6 C 72 % 1010,8 hPa 0,0 mm 0,0 km/h (0 Bft) S 180 12,6 C 0,0 km/h (0 Bft)
23.07.2015 01:50 18,0 C 17,8 C 73 % 1011,1 hPa 0,0 mm 0,3 km/h (0 Bft) SW 225 13,1 C 0,0 km/h (0 Bft)
23.07.2015 01:55 18,0 C 17,8 C 73 % 1011,1 hPa 0,0 mm 0,3 km/h (0 Bft) S 180 13,1 C 0,0 km/h (0 Bft)
23.07.2015 02:00 18,2 C 18,0 C 74 % 1011,1 hPa 0,0 mm 1,8 km/h (1 Bft) S 180 13,5 C 3,6 km/h (1 Bft)
23.07.2015 02:05 18,4 C 18,2 C 74 % 1011,1 hPa 0,0 mm 4,4 km/h (1 Bft) SW 225 13,7 C 6,5 km/h (2 Bft)
23.07.2015 02:10 18,6 C 18,5 C 73 % 1011,1 hPa 0,0 mm 6,2 km/h (2 Bft) W 270 13,7 C 0,0 km/h (0 Bft)
23.07.2015 02:15 18,6 C 18,5 C 73 % 1011,1 hPa 0,0 mm 5,7 km/h (1 Bft) S 180 13,7 C 11,7 km/h (2 Bft)
23.07.2015 02:20 18,4 C 18,4 C 72 % 1011,1 hPa 0,0 mm 4,4 km/h (1 Bft) S 180 13,3 C 2,6 km/h (1 Bft)
23.07.2015 02:25 18,3 C 18,3 C 72 % 1011,1 hPa 0,0 mm 3,9 km/h (1 Bft) S-SW 202 13,2 C 5,2 km/h (1 Bft)
23.07.2015 02:30 18,5 C 18,4 C 73 % 1011,1 hPa 0,0 mm 4,7 km/h (1 Bft) SW 225 13,6 C 12,7 km/h (3 Bft)
23.07.2015 02:35 18,6 C 18,5 C 72 % 1011,1 hPa 0,0 mm 6,5 km/h (2 Bft) SW 225 13,4 C 12,4 km/h (3 Bft)
23.07.2015 02:40 18,7 C 18,6 C 71 % 1011,1 hPa 0,0 mm 8,8 km/h (2 Bft) S 180 13,3 C 6,0 km/h (2 Bft)
23.07.2015 02:45 18,7 C 18,6 C 71 % 1011,1 hPa 0,0 mm 8,8 km/h (2 Bft) S 180 13,3 C 6,0 km/h (2 Bft)
23.07.2015 02:50 18,7 C 18,7 C 71 % 1011,0 hPa 0,0 mm 8,5 km/h (2 Bft) SW 225 13,3 C 11,7 km/h (2 Bft)
23.07.2015 02:55 18,7 C 18,7 C 71 % 1011,0 hPa 0,0 mm 7,5 km/h (2 Bft) S 180 13,3 C 8,0 km/h (2 Bft)
23.07.2015 03:00 18,5 C 18,5 C 71 % 1011,0 hPa 0,0 mm 6,2 km/h (2 Bft) SW 225 13,1 C 9,3 km/h (2 Bft)
23.07.2015 03:05 18,4 C 18,5 C 71 % 1011,0 hPa 0,0 mm 5,4 km/h (1 Bft) SW 225 13,0 C 7,0 km/h (2 Bft)
23.07.2015 03:10 18,5 C 18,5 C 71 % 1010,9 hPa 0,0 mm 4,4 km/h (1 Bft) SW 225 13,1 C 0,0 km/h (0 Bft)
23.07.2015 03:15 18,2 C 18,3 C 72 % 1010,9 hPa 0,0 mm 2,8 km/h (1 Bft) S-SO 157 13,1 C 0,0 km/h (0 Bft)
23.07.2015 03:20 18,0 C 18,1 C 72 % 1010,9 hPa 0,0 mm 0,5 km/h (0 Bft) W-NW 292 12,9 C 3,6 km/h (1 Bft)
23.07.2015 03:25 17,8 C 17,9 C 72 % 1010,9 hPa 0,0 mm 0,5 km/h (0 Bft) SO 135 12,7 C 0,0 km/h (0 Bft)
23.07.2015 03:30 17,8 C 17,8 C 74 % 1011,0 hPa 0,0 mm 2,1 km/h (1 Bft) S 180 13,1 C 2,8 km/h (1 Bft)
23.07.2015 03:35 17,8 C 17,8 C 74 % 1011,0 hPa 0,0 mm 2,8 km/h (1 Bft) S-SO 157 13,1 C 2,8 km/h (1 Bft)
23.07.2015 03:40 17,8 C 17,8 C 74 % 1011,0 hPa 0,0 mm 2,1 km/h (1 Bft) S-SO 157 13,1 C 6,2 km/h (2 Bft)
23.07.2015 03:45 18,1 C 18,0 C 74 % 1011,0 hPa 0,0 mm 3,4 km/h (1 Bft) SW 225 13,4 C 8,5 km/h (2 Bft)
23.07.2015 03:50 18,3 C 18,3 C 73 % 1011,0 hPa 0,0 mm 4,4 km/h (1 Bft) S-SO 157 13,4 C 3,6 km/h (1 Bft)
23.07.2015 03:55 18,6 C 18,5 C 73 % 1011,0 hPa 0,0 mm 4,1 km/h (1 Bft) S-SW 202 13,7 C 6,0 km/h (2 Bft)
23.07.2015 04:00 18,6 C 18,5 C 72 % 1011,0 hPa 0,0 mm 3,6 km/h (1 Bft) S 180 13,4 C 3,1 km/h (1 Bft)
23.07.2015 04:05 18,7 C 18,6 C 72 % 1011,0 hPa 0,0 mm 3,9 km/h (1 Bft) S 180 13,5 C 14,0 km/h (3 Bft)
23.07.2015 04:10 18,8 C 18,7 C 72 % 1011,3 hPa 0,0 mm 5,7 km/h (1 Bft) S-SW 202 13,6 C 9,3 km/h (2 Bft)
23.07.2015 04:15 18,8 C 18,8 C 73 % 1011,3 hPa 0,0 mm 6,0 km/h (2 Bft) N 360 13,9 C 8,5 km/h (2 Bft)
23.07.2015 04:20 18,7 C 18,7 C 74 % 1011,3 hPa 0,0 mm 3,9 km/h (1 Bft) O-SO 112 14,0 C 2,8 km/h (1 Bft)
23.07.2015 04:25 18,8 C 18,7 C 75 % 1011,3 hPa 0,0 mm 3,6 km/h (1 Bft) S-SW 202 14,3 C 12,4 km/h (3 Bft)
23.07.2015 04:30 18,8 C 18,7 C 75 % 1011,3 hPa 0,0 mm 4,1 km/h (1 Bft) S 180 14,3 C 23,0 km/h (4 Bft)
23.07.2015 04:35 18,9 C 18,8 C 76 % 1011,3 hPa 0,0 mm 4,7 km/h (1 Bft) S-SW 202 14,6 C 4,4 km/h (1 Bft)
23.07.2015 04:40 18,8 C 18,7 C 76 % 1011,3 hPa 0,0 mm 3,9 km/h (1 Bft) W 270 14,5 C 5,4 km/h (1 Bft)
23.07.2015 04:45 18,8 C 18,7 C 76 % 1011,3 hPa 0,0 mm 3,1 km/h (1 Bft) NW 315 14,5 C 5,7 km/h (1 Bft)
23.07.2015 04:50 18,8 C 18,8 C 76 % 1011,4 hPa 0,0 mm 4,4 km/h (1 Bft) W-SW 247 14,5 C 9,3 km/h (2 Bft)
23.07.2015 04:55 19,0 C 18,9 C 76 % 1011,4 hPa 0,0 mm 5,7 km/h (1 Bft) W-SW 247 14,7 C 7,8 km/h (2 Bft)
23.07.2015 05:00 18,9 C 18,9 C 77 % 1011,4 hPa 0,0 mm 7,3 km/h (2 Bft) SO 135 14,8 C 2,8 km/h (1 Bft)
23.07.2015 05:05 18,9 C 18,9 C 77 % 1011,4 hPa 0,0 mm 6,2 km/h (2 Bft) W-SW 247 14,8 C 8,8 km/h (2 Bft)
23.07.2015 05:10 18,8 C 18,8 C 77 % 1011,2 hPa 0,0 mm 4,9 km/h (1 Bft) S 180 14,7 C 9,6 km/h (2 Bft)
23.07.2015 05:15 18,7 C 18,7 C 77 % 1011,2 hPa 0,0 mm 4,4 km/h (1 Bft) S-SO 157 14,6 C 3,9 km/h (1 Bft)
23.07.2015 05:20 18,6 C 18,6 C 77 % 1011,2 hPa 0,0 mm 4,7 km/h (1 Bft) NW 315 14,5 C 8,0 km/h (2 Bft)
23.07.2015 05:25 18,6 C 18,5 C 78 % 1011,2 hPa 0,0 mm 6,0 km/h (2 Bft) S 180 14,7 C 7,0 km/h (2 Bft)
23.07.2015 05:30 18,5 C 18,4 C 77 % 1011,5 hPa 0,0 mm 6,0 km/h (2 Bft) S-SW 202 14,4 C 0,0 km/h (0 Bft)
23.07.2015 05:35 18,3 C 18,2 C 78 % 1011,5 hPa 0,0 mm 4,1 km/h (1 Bft) N-NO 22 14,4 C 0,0 km/h (0 Bft)
23.07.2015 05:40 18,0 C 17,9 C 78 % 1011,5 hPa 0,0 mm 2,1 km/h (1 Bft) W-SW 247 14,1 C 3,9 km/h (1 Bft)
23.07.2015 05:45 18,0 C 17,9 C 78 % 1011,5 hPa 0,0 mm 1,6 km/h (1 Bft) W 270 14,1 C 2,8 km/h (1 Bft)
23.07.2015 05:50 18,0 C 17,9 C 78 % 1011,6 hPa 0,0 mm 2,3 km/h (1 Bft) W-SW 247 14,1 C 3,6 km/h (1 Bft)
23.07.2015 05:55 18,0 C 17,9 C 78 % 1011,6 hPa 0,0 mm 2,3 km/h (1 Bft) S-SO 157 14,1 C 4,1 km/h (1 Bft)
23.07.2015 06:00 18,0 C 17,9 C 78 % 1011,6 hPa 0,0 mm 1,3 km/h (1 Bft) S-SW 202 14,1 C 4,7 km/h (1 Bft)
23.07.2015 06:05 18,0 C 17,9 C 79 % 1011,6 hPa 0,0 mm 1,6 km/h (1 Bft) W-NW 292 14,3 C 2,8 km/h (1 Bft)
23.07.2015 06:10 18,0 C 17,8 C 79 % 1011,7 hPa 0,0 mm 2,1 km/h (1 Bft) N 360 14,3 C 2,6 km/h (1 Bft)
23.07.2015 06:15 17,9 C 17,8 C 79 % 1011,7 hPa 0,0 mm 1,3 km/h (1 Bft) O 90 14,2 C 0,0 km/h (0 Bft)
23.07.2015 06:20 18,1 C 18,0 C 79 % 1011,7 hPa 0,0 mm 1,8 km/h (1 Bft) SO 135 14,4 C 0,0 km/h (0 Bft)
23.07.2015 06:25 18,0 C 17,9 C 79 % 1011,7 hPa 0,0 mm 1,6 km/h (1 Bft) S 180 14,3 C 0,0 km/h (0 Bft)
23.07.2015 06:30 18,0 C 17,9 C 79 % 1011,7 hPa 0,0 mm 0,8 km/h (0 Bft) W-SW 247 14,3 C 0,0 km/h (0 Bft)
23.07.2015 06:35 17,9 C 17,9 C 79 % 1011,7 hPa 0,0 mm 0,8 km/h (0 Bft) SW 225 14,2 C 0,0 km/h (0 Bft)
23.07.2015 06:40 18,2 C 18,2 C 78 % 1011,7 hPa 0,0 mm 0,8 km/h (0 Bft) S 180 14,3 C 6,7 km/h (2 Bft)
23.07.2015 06:45 18,4 C 18,4 C 78 % 1011,7 hPa 0,0 mm 1,6 km/h (1 Bft) W-NW 292 14,5 C 0,0 km/h (0 Bft)
23.07.2015 06:50 18,6 C 18,6 C 79 % 1011,8 hPa 0,0 mm 1,6 km/h (1 Bft) NW 315 14,9 C 0,0 km/h (0 Bft)
23.07.2015 06:55 18,6 C 18,6 C 79 % 1011,8 hPa 0,0 mm 0,3 km/h (0 Bft) NW 315 14,9 C 0,0 km/h (0 Bft)
23.07.2015 07:00 18,6 C 18,8 C 79 % 1011,8 hPa 0,0 mm 0,0 km/h (0 Bft) W-SW 247 14,9 C 0,0 km/h (0 Bft)
23.07.2015 07:05 18,6 C 18,8 C 79 % 1011,8 hPa 0,0 mm 0,0 km/h (0 Bft) S-SW 202 14,9 C 0,0 km/h (0 Bft)
23.07.2015 07:10 18,6 C 18,9 C 78 % 1011,8 hPa 0,0 mm 1,6 km/h (1 Bft) W 270 14,7 C 2,6 km/h (1 Bft)
23.07.2015 07:15 18,8 C 19,0 C 78 % 1011,8 hPa 0,0 mm 3,1 km/h (1 Bft) W-SW 247 14,9 C 4,1 km/h (1 Bft)
23.07.2015 07:20 18,9 C 19,2 C 77 % 1011,8 hPa 0,0 mm 3,1 km/h (1 Bft) S-SO 157 14,8 C 4,9 km/h (1 Bft)
23.07.2015 07:25 19,0 C 19,3 C 77 % 1011,8 hPa 0,0 mm 2,6 km/h (1 Bft) W-SW 247 14,9 C 3,9 km/h (1 Bft)
23.07.2015 07:30 19,1 C 19,5 C 77 % 1011,8 hPa 0,0 mm 1,8 km/h (1 Bft) NW 315 15,0 C 0,0 km/h (0 Bft)
23.07.2015 07:35 19,2 C 19,6 C 77 % 1011,8 hPa 0,0 mm 1,8 km/h (1 Bft) W-SW 247 15,1 C 4,9 km/h (1 Bft)
23.07.2015 07:40 19,3 C 20,0 C 77 % 1011,8 hPa 0,0 mm 2,8 km/h (1 Bft) W-SW 247 15,2 C 7,5 km/h (2 Bft)
23.07.2015 07:45 19,5 C 20,3 C 76 % 1011,8 hPa 0,0 mm 3,9 km/h (1 Bft) W 270 15,2 C 3,4 km/h (1 Bft)
23.07.2015 07:50 19,8 C 20,9 C 76 % 1011,8 hPa 0,0 mm 5,4 km/h (1 Bft) W-SW 247 15,4 C 12,2 km/h (2 Bft)
23.07.2015 07:55 20,3 C 22,7 C 76 % 1011,8 hPa 0,0 mm 5,7 km/h (1 Bft) S 180 15,9 C 4,1 km/h (1 Bft)
23.07.2015 08:00 20,7 C 24,3 C 75 % 1011,8 hPa 0,0 mm 4,4 km/h (1 Bft) W 270 16,1 C 3,9 km/h (1 Bft)
23.07.2015 08:05 20,7 C 23,7 C 74 % 1011,8 hPa 0,0 mm 2,8 km/h (1 Bft) W-NW 292 15,9 C 0,0 km/h (0 Bft)
23.07.2015 08:10 21,1 C 24,4 C 74 % 1011,7 hPa 0,0 mm 2,6 km/h (1 Bft) W-NW 292 16,3 C 0,0 km/h (0 Bft)
23.07.2015 08:15 21,4 C 25,4 C 73 % 1011,7 hPa 0,0 mm 3,9 km/h (1 Bft) NW 315 16,4 C 9,3 km/h (2 Bft)
23.07.2015 08:20 21,1 C 24,3 C 73 % 1011,7 hPa 0,0 mm 6,5 km/h (2 Bft) W 270 16,1 C 6,0 km/h (2 Bft)
23.07.2015 08:25 21,0 C 23,7 C 73 % 1011,7 hPa 0,0 mm 5,7 km/h (1 Bft) W 270 16,0 C 4,7 km/h (1 Bft)
23.07.2015 08:30 21,1 C 23,5 C 73 % 1011,8 hPa 0,0 mm 2,3 km/h (1 Bft) NW 315 16,1 C 4,7 km/h (1 Bft)
23.07.2015 08:35 21,1 C 23,6 C 73 % 1011,8 hPa 0,0 mm 2,6 km/h (1 Bft) W-SW 247 16,1 C 4,9 km/h (1 Bft)
23.07.2015 08:40 21,7 C 25,5 C 72 % 1011,8 hPa 0,0 mm 6,0 km/h (2 Bft) N-NW 337 16,4 C 6,2 km/h (2 Bft)
23.07.2015 08:41 21,7 C 25,5 C 72 % 1011,8 hPa 0,0 mm 6,0 km/h (2 Bft) N-NW 337 16,4 C 6,2 km/h (2 Bft)
23.07.2015 08:45 21,7 C 25,5 C 72 % 1011,8 hPa 0,0 mm 6,0 km/h (2 Bft) N-NW 337 16,4 C 6,2 km/h (2 Bft)
23.07.2015 08:50 21,9 C 25,4 C 72 % 1011,8 hPa 0,0 mm 7,0 km/h (2 Bft) W 270 16,6 C 11,7 km/h (2 Bft)
23.07.2015 08:55 22,0 C 26,4 C 71 % 1011,8 hPa 0,0 mm 7,8 km/h (2 Bft) W-NW 292 16,5 C 8,5 km/h (2 Bft)
23.07.2015 09:00 22,3 C 27,6 C 71 % 1011,8 hPa 0,0 mm 7,8 km/h (2 Bft) W-NW 292 16,8 C 9,3 km/h (2 Bft)
23.07.2015 09:05 22,5 C 28,4 C 69 % 1011,8 hPa 0,0 mm 6,2 km/h (2 Bft) NW 315 16,5 C 4,7 km/h (1 Bft)
23.07.2015 09:10 23,0 C 29,5 C 68 % 1011,8 hPa 0,0 mm 6,2 km/h (2 Bft) W 270 16,8 C 5,4 km/h (1 Bft)
23.07.2015 09:15 23,1 C 29,7 C 68 % 1011,8 hPa 0,0 mm 6,5 km/h (2 Bft) NW 315 16,9 C 7,0 km/h (2 Bft)
23.07.2015 09:20 23,4 C 29,7 C 68 % 1011,8 hPa 0,0 mm 7,3 km/h (2 Bft) SW 225 17,1 C 8,5 km/h (2 Bft)
23.07.2015 09:25 23,0 C 29,5 C 67 % 1011,8 hPa 0,0 mm 8,5 km/h (2 Bft) W-NW 292 16,5 C 15,3 km/h (3 Bft)
23.07.2015 09:30 22,9 C 28,6 C 68 % 1012,2 hPa 0,0 mm 9,6 km/h (2 Bft) NW 315 16,7 C 23,3 km/h (4 Bft)
23.07.2015 09:35 22,9 C 28,3 C 68 % 1012,2 hPa 0,0 mm 10,9 km/h (2 Bft) W 270 16,7 C 12,2 km/h (2 Bft)
23.07.2015 09:40 22,9 C 27,7 C 68 % 1012,2 hPa 0,0 mm 11,1 km/h (2 Bft) NW 315 16,7 C 13,2 km/h (3 Bft)
23.07.2015 09:45 22,5 C 26,5 C 68 % 1012,2 hPa 0,0 mm 10,6 km/h (2 Bft) W-SW 247 16,3 C 19,7 km/h (3 Bft)
23.07.2015 09:50 22,4 C 25,5 C 69 % 1012,7 hPa 0,0 mm 9,3 km/h (2 Bft) W-NW 292 16,4 C 16,6 km/h (3 Bft)
23.07.2015 09:55 22,2 C 25,1 C 69 % 1012,7 hPa 0,0 mm 9,3 km/h (2 Bft) W 270 16,2 C 7,5 km/h (2 Bft)
23.07.2015 10:00 22,1 C 24,9 C 69 % 1012,7 hPa 0,0 mm 8,0 km/h (2 Bft) W 270 16,1 C 8,3 km/h (2 Bft)
23.07.2015 10:05 22,1 C 24,7 C 69 % 1012,7 hPa 0,0 mm 7,5 km/h (2 Bft) W-NW 292 16,1 C 9,3 km/h (2 Bft)
23.07.2015 10:10 22,2 C 24,8 C 69 % 1012,9 hPa 0,0 mm 7,0 km/h (2 Bft) W 270 16,2 C 6,5 km/h (2 Bft)
23.07.2015 10:15 22,5 C 25,6 C 69 % 1012,9 hPa 0,0 mm 6,2 km/h (2 Bft) W-SW 247 16,5 C 6,2 km/h (2 Bft)
23.07.2015 10:20 22,5 C 25,9 C 69 % 1012,9 hPa 0,0 mm 5,4 km/h (1 Bft) W 270 16,5 C 10,6 km/h (2 Bft)
23.07.2015 10:25 22,9 C 26,9 C 69 % 1012,9 hPa 0,0 mm 6,2 km/h (2 Bft) S 180 16,9 C 10,6 km/h (2 Bft)
23.07.2015 10:30 23,0 C 28,0 C 68 % 1012,8 hPa 0,0 mm 6,7 km/h (2 Bft) NW 315 16,8 C 17,6 km/h (3 Bft)
23.07.2015 10:35 22,9 C 27,4 C 68 % 1012,8 hPa 0,0 mm 7,8 km/h (2 Bft) W-NW 292 16,7 C 6,0 km/h (2 Bft)
23.07.2015 10:40 22,7 C 26,6 C 69 % 1012,8 hPa 0,0 mm 9,6 km/h (2 Bft) N-NW 337 16,7 C 13,5 km/h (3 Bft)
23.07.2015 10:45 22,7 C 25,9 C 69 % 1012,8 hPa 0,0 mm 10,1 km/h (2 Bft) W-NW 292 16,7 C 13,2 km/h (3 Bft)
23.07.2015 10:50 22,7 C 25,9 C 69 % 1013,0 hPa 0,0 mm 9,8 km/h (2 Bft) W-NW 292 16,7 C 11,7 km/h (2 Bft)
23.07.2015 10:55 23,0 C 26,7 C 68 % 1013,0 hPa 0,0 mm 8,5 km/h (2 Bft) W-NW 292 16,8 C 7,8 km/h (2 Bft)
23.07.2015 11:00 22,8 C 26,2 C 68 % 1013,0 hPa 0,0 mm 9,1 km/h (2 Bft) W-NW 292 16,6 C 9,6 km/h (2 Bft)
23.07.2015 11:05 22,7 C 25,6 C 68 % 1013,0 hPa 0,0 mm 8,5 km/h (2 Bft) W 270 16,5 C 5,4 km/h (1 Bft)
23.07.2015 11:10 22,8 C 25,7 C 68 % 1013,0 hPa 0,0 mm 6,2 km/h (2 Bft) NW 315 16,6 C 10,4 km/h (2 Bft)
23.07.2015 11:15 22,9 C 25,8 C 68 % 1013,0 hPa 0,0 mm 5,2 km/h (1 Bft) NW 315 16,7 C 4,1 km/h (1 Bft)
23.07.2015 11:20 22,8 C 25,7 C 68 % 1013,0 hPa 0,0 mm 6,7 km/h (2 Bft) N-NW 337 16,6 C 5,2 km/h (1 Bft)
23.07.2015 11:25 22,7 C 25,4 C 68 % 1013,0 hPa 0,0 mm 6,5 km/h (2 Bft) W 270 16,5 C 4,1 km/h (1 Bft)
23.07.2015 11:30 22,8 C 25,1 C 69 % 1012,9 hPa 0,0 mm 6,5 km/h (2 Bft) W-SW 247 16,8 C 13,2 km/h (3 Bft)
23.07.2015 11:35 22,7 C 25,1 C 69 % 1012,9 hPa 0,0 mm 7,0 km/h (2 Bft) W-NW 292 16,7 C 3,1 km/h (1 Bft)
23.07.2015 11:40 22,6 C 25,0 C 69 % 1012,9 hPa 0,0 mm 8,8 km/h (2 Bft) NW 315 16,6 C 11,1 km/h (2 Bft)
23.07.2015 11:45 22,5 C 24,8 C 69 % 1012,9 hPa 0,0 mm 7,8 km/h (2 Bft) NW 315 16,5 C 6,2 km/h (2 Bft)
23.07.2015 11:50 22,5 C 24,8 C 69 % 1012,9 hPa 0,0 mm 7,3 km/h (2 Bft) W 270 16,5 C 9,6 km/h (2 Bft)
23.07.2015 11:55 22,5 C 24,6 C 69 % 1012,9 hPa 0,0 mm 7,0 km/h (2 Bft) W 270 16,5 C 7,8 km/h (2 Bft)
23.07.2015 12:00 22,4 C 24,5 C 69 % 1012,9 hPa 0,0 mm 8,0 km/h (2 Bft) W 270 16,4 C 16,6 km/h (3 Bft)
23.07.2015 12:05 22,5 C 24,8 C 69 % 1012,9 hPa 0,0 mm 8,0 km/h (2 Bft) W 270 16,5 C 7,0 km/h (2 Bft)
23.07.2015 12:10 22,6 C 25,1 C 69 % 1012,8 hPa 0,0 mm 8,5 km/h (2 Bft) W 270 16,6 C 14,0 km/h (3 Bft)
23.07.2015 12:15 21,8 C 24,0 C 71 % 1012,8 hPa 0,0 mm 12,4 km/h (3 Bft) W 270 16,3 C 23,3 km/h (4 Bft)
23.07.2015 12:20 21,2 C 22,5 C 73 % 1012,8 hPa 0,0 mm 14,2 km/h (3 Bft) W 270 16,2 C 28,0 km/h (4 Bft)
23.07.2015 12:25 21,1 C 22,1 C 73 % 1012,8 hPa 0,0 mm 11,7 km/h (2 Bft) NW 315 16,1 C 11,4 km/h (2 Bft)
23.07.2015 12:30 21,1 C 22,3 C 74 % 1012,8 hPa 0,0 mm 9,6 km/h (2 Bft) W-NW 292 16,3 C 12,9 km/h (3 Bft)
23.07.2015 12:35 21,1 C 22,8 C 74 % 1012,8 hPa 0,0 mm 9,8 km/h (2 Bft) W 270 16,3 C 9,3 km/h (2 Bft)
23.07.2015 12:40 21,8 C 24,4 C 74 % 1012,8 hPa 0,0 mm 9,6 km/h (2 Bft) O-SO 112 17,0 C 11,9 km/h (2 Bft)
23.07.2015 12:45 22,4 C 25,2 C 73 % 1012,8 hPa 0,0 mm 8,0 km/h (2 Bft) NW 315 17,3 C 11,7 km/h (2 Bft)
23.07.2015 12:50 22,5 C 25,9 C 73 % 1012,6 hPa 0,0 mm 8,0 km/h (2 Bft) N 360 17,4 C 10,6 km/h (2 Bft)
23.07.2015 12:55 22,3 C 25,2 C 73 % 1012,6 hPa 0,0 mm 8,3 km/h (2 Bft) W 270 17,2 C 6,7 km/h (2 Bft)
23.07.2015 13:00 21,8 C 24,3 C 73 % 1012,6 hPa 0,0 mm 7,3 km/h (2 Bft) W-NW 292 16,7 C 7,3 km/h (2 Bft)
23.07.2015 13:05 21,8 C 24,1 C 73 % 1012,6 hPa 0,0 mm 6,2 km/h (2 Bft) N-NW 337 16,7 C 6,7 km/h (2 Bft)
23.07.2015 13:10 22,3 C 24,7 C 72 % 1012,6 hPa 0,0 mm 8,5 km/h (2 Bft) NW 315 17,0 C 14,0 km/h (3 Bft)
23.07.2015 13:15 22,2 C 24,8 C 72 % 1012,6 hPa 0,0 mm 9,8 km/h (2 Bft) N-NW 337 16,9 C 16,3 km/h (3 Bft)
23.07.2015 13:20 22,5 C 25,1 C 73 % 1012,6 hPa 0,0 mm 9,8 km/h (2 Bft) W 270 17,4 C 6,5 km/h (2 Bft)
23.07.2015 13:25 22,3 C 25,5 C 72 % 1012,6 hPa 0,0 mm 10,6 km/h (2 Bft) W 270 17,0 C 15,8 km/h (3 Bft)
23.07.2015 13:30 21,4 C 24,0 C 72 % 1012,8 hPa 0,0 mm 11,7 km/h (2 Bft) N-NW 337 16,1 C 17,6 km/h (3 Bft)
23.07.2015 13:35 21,1 C 23,0 C 73 % 1012,8 hPa 0,0 mm 9,8 km/h (2 Bft) NW 315 16,1 C 10,4 km/h (2 Bft)
23.07.2015 13:40 20,9 C 22,2 C 73 % 1012,8 hPa 0,0 mm 9,1 km/h (2 Bft) W-NW 292 15,9 C 23,0 km/h (4 Bft)
23.07.2015 13:45 20,7 C 21,7 C 74 % 1012,8 hPa 0,0 mm 9,8 km/h (2 Bft) W-SW 247 15,9 C 11,9 km/h (2 Bft)
23.07.2015 13:50 20,7 C 21,6 C 75 % 1012,6 hPa 0,0 mm 10,9 km/h (2 Bft) W-NW 292 16,1 C 9,3 km/h (2 Bft)
23.07.2015 13:55 20,6 C 21,5 C 75 % 1012,6 hPa 0,0 mm 10,6 km/h (2 Bft) N-NW 337 16,0 C 8,3 km/h (2 Bft)
23.07.2015 14:00 20,5 C 21,5 C 75 % 1012,6 hPa 0,0 mm 11,4 km/h (2 Bft) NW 315 15,9 C 12,2 km/h (2 Bft)
23.07.2015 14:05 20,5 C 21,5 C 75 % 1012,6 hPa 0,0 mm 11,1 km/h (2 Bft) W 270 15,9 C 9,8 km/h (2 Bft)
23.07.2015 14:10 20,5 C 22,0 C 75 % 1012,6 hPa 0,0 mm 12,2 km/h (2 Bft) W-NW 292 15,9 C 23,0 km/h (4 Bft)
23.07.2015 14:15 20,3 C 22,0 C 75 % 1012,6 hPa 0,0 mm 12,7 km/h (3 Bft) W 270 15,7 C 18,6 km/h (3 Bft)
23.07.2015 14:20 19,8 C 21,0 C 76 % 1012,6 hPa 0,0 mm 14,0 km/h (3 Bft) NW 315 15,4 C 15,8 km/h (3 Bft)
23.07.2015 14:25 19,4 C 20,2 C 76 % 1012,6 hPa 0,0 mm 14,5 km/h (3 Bft) W-NW 292 15,1 C 19,9 km/h (4 Bft)
23.07.2015 14:30 19,0 C 19,6 C 77 % 1012,8 hPa 0,0 mm 12,2 km/h (2 Bft) S-SW 202 14,9 C 8,0 km/h (2 Bft)
23.07.2015 14:35 18,9 C 19,5 C 78 % 1012,8 hPa 0,0 mm 11,1 km/h (2 Bft) NW 315 15,0 C 12,4 km/h (3 Bft)
23.07.2015 14:40 18,7 C 19,4 C 78 % 1012,8 hPa 0,0 mm 10,1 km/h (2 Bft) NW 315 14,8 C 12,2 km/h (2 Bft)
23.07.2015 14:42 18,6 C 19,2 C 78 % 1012,8 hPa 0,0 mm 10,4 km/h (2 Bft) W-NW 292 14,7 C 20,2 km/h (4 Bft)
23.07.2015 14:45 18,6 C 19,2 C 78 % 1012,8 hPa 0,0 mm 10,4 km/h (2 Bft) W-NW 292 14,7 C 20,2 km/h (4 Bft)
23.07.2015 14:50 18,3 C 18,9 C 79 % 1012,8 hPa 0,0 mm 11,1 km/h (2 Bft) W-NW 292 14,6 C 15,0 km/h (3 Bft)
23.07.2015 14:55 18,3 C 18,9 C 79 % 1012,8 hPa 0,0 mm 10,6 km/h (2 Bft) NW 315 14,6 C 9,8 km/h (2 Bft)
23.07.2015 15:00 18,1 C 19,2 C 79 % 1012,8 hPa 0,0 mm 10,4 km/h (2 Bft) W 270 14,4 C 17,3 km/h (3 Bft)
23.07.2015 15:05 18,2 C 19,3 C 79 % 1012,8 hPa 0,0 mm 10,9 km/h (2 Bft) W-SW 247 14,5 C 17,1 km/h (3 Bft)
23.07.2015 15:10 18,4 C 20,1 C 79 % 1012,4 hPa 0,0 mm 9,8 km/h (2 Bft) W-SW 247 14,7 C 15,3 km/h (3 Bft)
23.07.2015 15:15 18,4 C 20,5 C 79 % 1012,4 hPa 0,0 mm 8,3 km/h (2 Bft) S 180 14,7 C 5,7 km/h (1 Bft)
23.07.2015 15:20 18,7 C 20,9 C 78 % 1012,4 hPa 0,0 mm 7,3 km/h (2 Bft) SW 225 14,8 C 7,0 km/h (2 Bft)
23.07.2015 15:25 18,7 C 21,2 C 78 % 1012,4 hPa 0,0 mm 5,4 km/h (1 Bft) NW 315 14,8 C 7,8 km/h (2 Bft)
23.07.2015 15:30 18,9 C 21,4 C 78 % 1012,6 hPa 0,0 mm 5,4 km/h (1 Bft) NW 315 15,0 C 7,5 km/h (2 Bft)
23.07.2015 15:35 19,0 C 21,3 C 77 % 1012,6 hPa 0,0 mm 6,2 km/h (2 Bft) W 270 14,9 C 6,5 km/h (2 Bft)
23.07.2015 15:40 19,2 C 21,3 C 77 % 1012,6 hPa 0,0 mm 6,0 km/h (2 Bft) NW 315 15,1 C 4,4 km/h (1 Bft)
23.07.2015 15:45 19,2 C 21,3 C 77 % 1012,6 hPa 0,0 mm 5,4 km/h (1 Bft) W 270 15,1 C 7,0 km/h (2 Bft)
23.07.2015 15:50 19,2 C 21,0 C 76 % 1012,4 hPa 0,0 mm 6,0 km/h (2 Bft) W-NW 292 14,9 C 5,4 km/h (1 Bft)
23.07.2015 15:55 19,2 C 21,1 C 76 % 1012,4 hPa 0,0 mm 6,0 km/h (2 Bft) W 270 14,9 C 6,7 km/h (2 Bft)
23.07.2015 16:00 19,1 C 20,8 C 76 % 1012,4 hPa 0,0 mm 4,4 km/h (1 Bft) W 270 14,8 C 7,0 km/h (2 Bft)
23.07.2015 16:05 19,1 C 20,8 C 76 % 1012,4 hPa 0,0 mm 3,1 km/h (1 Bft) NW 315 14,8 C 0,0 km/h (0 Bft)
23.07.2015 16:10 19,2 C 21,0 C 76 % 1012,4 hPa 0,0 mm 3,1 km/h (1 Bft) W-NW 292 14,9 C 6,7 km/h (2 Bft)
23.07.2015 16:15 19,2 C 20,7 C 76 % 1012,4 hPa 0,0 mm 4,4 km/h (1 Bft) N-NW 337 14,9 C 6,7 km/h (2 Bft)
23.07.2015 16:20 19,4 C 21,0 C 76 % 1012,4 hPa 0,0 mm 3,9 km/h (1 Bft) W-NW 292 15,1 C 5,2 km/h (1 Bft)
23.07.2015 16:25 19,7 C 21,5 C 75 % 1012,4 hPa 0,0 mm 2,6 km/h (1 Bft) NW 315 15,1 C 7,5 km/h (2 Bft)
23.07.2015 16:30 19,9 C 22,4 C 74 % 1012,3 hPa 0,0 mm 3,9 km/h (1 Bft) NW 315 15,1 C 7,0 km/h (2 Bft)
23.07.2015 16:35 20,0 C 22,5 C 73 % 1012,3 hPa 0,0 mm 4,4 km/h (1 Bft) W-NW 292 15,0 C 6,2 km/h (2 Bft)
23.07.2015 16:40 20,1 C 22,8 C 73 % 1012,3 hPa 0,0 mm 3,1 km/h (1 Bft) S 180 15,1 C 6,2 km/h (2 Bft)
23.07.2015 16:45 20,0 C 22,9 C 73 % 1012,3 hPa 0,0 mm 2,1 km/h (1 Bft) O-SO 112 15,0 C 0,0 km/h (0 Bft)
23.07.2015 16:50 20,4 C 23,3 C 73 % 1012,2 hPa 0,0 mm 1,0 km/h (0 Bft) W-NW 292 15,4 C 0,0 km/h (0 Bft)
23.07.2015 16:55 20,6 C 23,6 C 72 % 1012,2 hPa 0,0 mm 1,6 km/h (1 Bft) W-NW 292 15,4 C 0,0 km/h (0 Bft)
23.07.2015 17:00 20,7 C 24,0 C 71 % 1012,2 hPa 0,0 mm 2,1 km/h (1 Bft) O-NO 67 15,2 C 3,4 km/h (1 Bft)
23.07.2015 17:05 20,4 C 23,4 C 71 % 1012,2 hPa 0,0 mm 1,8 km/h (1 Bft) O-SO 112 15,0 C 0,0 km/h (0 Bft)
23.07.2015 17:10 20,5 C 23,4 C 71 % 1012,4 hPa 0,0 mm 1,0 km/h (0 Bft) SO 135 15,1 C 0,0 km/h (0 Bft)
23.07.2015 17:15 20,5 C 23,3 C 71 % 1012,4 hPa 0,0 mm 0,0 km/h (0 Bft) NW 315 15,1 C 3,6 km/h (1 Bft)
23.07.2015 17:20 20,7 C 23,3 C 70 % 1012,4 hPa 0,0 mm 1,0 km/h (0 Bft) W-NW 292 15,0 C 5,2 km/h (1 Bft)
23.07.2015 17:25 20,7 C 23,5 C 70 % 1012,4 hPa 0,0 mm 2,3 km/h (1 Bft) W 270 15,0 C 7,0 km/h (2 Bft)
23.07.2015 17:30 20,6 C 22,9 C 69 % 1012,1 hPa 0,0 mm 4,4 km/h (1 Bft) W 270 14,7 C 7,3 km/h (2 Bft)
23.07.2015 17:35 20,6 C 22,7 C 69 % 1012,1 hPa 0,0 mm 5,4 km/h (1 Bft) W-SW 247 14,7 C 7,8 km/h (2 Bft)
23.07.2015 17:40 20,4 C 22,1 C 69 % 1012,1 hPa 0,0 mm 5,2 km/h (1 Bft) W-NW 292 14,5 C 5,7 km/h (1 Bft)
23.07.2015 17:45 20,5 C 22,0 C 69 % 1012,1 hPa 0,0 mm 6,0 km/h (2 Bft) W 270 14,6 C 10,6 km/h (2 Bft)
23.07.2015 17:50 20,5 C 21,7 C 69 % 1011,9 hPa 0,0 mm 5,7 km/h (1 Bft) W 270 14,6 C 3,4 km/h (1 Bft)
23.07.2015 17:55 20,4 C 21,7 C 69 % 1011,9 hPa 0,0 mm 4,4 km/h (1 Bft) W 270 14,5 C 3,1 km/h (1 Bft)
23.07.2015 18:00 20,5 C 21,6 C 69 % 1011,9 hPa 0,0 mm 2,6 km/h (1 Bft) W 270 14,6 C 3,4 km/h (1 Bft)
23.07.2015 18:05 20,4 C 21,6 C 69 % 1011,9 hPa 0,0 mm 1,6 km/h (1 Bft) W 270 14,5 C 0,0 km/h (0 Bft)
23.07.2015 18:10 20,4 C 21,7 C 69 % 1011,7 hPa 0,0 mm 0,3 km/h (0 Bft) W-SW 247 14,5 C 0,0 km/h (0 Bft)
23.07.2015 18:15 20,2 C 21,5 C 68 % 1011,7 hPa 0,0 mm 0,5 km/h (0 Bft) W-SW 247 14,1 C 0,0 km/h (0 Bft)
23.07.2015 18:20 20,0 C 21,1 C 69 % 1011,7 hPa 0,0 mm 0,5 km/h (0 Bft) W-SW 247 14,1 C 0,0 km/h (0 Bft)
23.07.2015 18:25 20,0 C 20,9 C 69 % 1011,7 hPa 0,0 mm 0,3 km/h (0 Bft) NW 315 14,1 C 0,0 km/h (0 Bft)
23.07.2015 18:30 20,0 C 20,8 C 70 % 1011,6 hPa 0,0 mm 0,5 km/h (0 Bft) W 270 14,4 C 0,0 km/h (0 Bft)
23.07.2015 18:35 20,0 C 20,7 C 70 % 1011,6 hPa 0,0 mm 0,5 km/h (0 Bft) NW 315 14,4 C 0,0 km/h (0 Bft)
23.07.2015 18:40 20,1 C 20,7 C 71 % 1011,6 hPa 0,0 mm 0,0 km/h (0 Bft) NW 315 14,7 C 0,0 km/h (0 Bft)
23.07.2015 18:45 20,0 C 20,7 C 71 % 1011,6 hPa 0,0 mm 0,0 km/h (0 Bft) W-NW 292 14,6 C 0,0 km/h (0 Bft)
23.07.2015 18:50 20,0 C 20,7 C 71 % 1011,2 hPa 0,0 mm 0,0 km/h (0 Bft) W-SW 247 14,6 C 0,0 km/h (0 Bft)
23.07.2015 18:55 19,8 C 20,6 C 71 % 1011,2 hPa 0,0 mm 0,0 km/h (0 Bft) W-SW 247 14,4 C 0,0 km/h (0 Bft)
23.07.2015 19:00 19,8 C 20,5 C 72 % 1011,2 hPa 0,0 mm 0,0 km/h (0 Bft) W-SW 247 14,6 C 0,0 km/h (0 Bft)
23.07.2015 19:05 19,8 C 20,3 C 72 % 1011,2 hPa 0,0 mm 0,0 km/h (0 Bft) W-SW 247 14,6 C 0,0 km/h (0 Bft)
23.07.2015 19:10 19,7 C 20,3 C 73 % 1011,5 hPa 0,0 mm 0,0 km/h (0 Bft) W-SW 247 14,7 C 0,0 km/h (0 Bft)
23.07.2015 19:15 19,7 C 20,2 C 73 % 1011,5 hPa 0,0 mm 0,0 km/h (0 Bft) W-SW 247 14,7 C 0,0 km/h (0 Bft)
23.07.2015 19:20 19,6 C 20,2 C 74 % 1011,5 hPa 0,0 mm 0,0 km/h (0 Bft) W-SW 247 14,8 C 0,0 km/h (0 Bft)
23.07.2015 19:25 19,6 C 20,1 C 74 % 1011,5 hPa 0,0 mm 0,0 km/h (0 Bft) W-SW 247 14,8 C 0,0 km/h (0 Bft)
23.07.2015 19:30 19,5 C 19,9 C 75 % 1011,7 hPa 0,0 mm 0,5 km/h (0 Bft) O-NO 67 14,9 C 2,8 km/h (1 Bft)
23.07.2015 19:35 19,4 C 19,8 C 75 % 1011,7 hPa 0,0 mm 0,8 km/h (0 Bft) O 90 14,8 C 0,0 km/h (0 Bft)
23.07.2015 19:40 19,4 C 19,5 C 75 % 1011,7 hPa 0,0 mm 0,8 km/h (0 Bft) NO 45 14,8 C 0,0 km/h (0 Bft)
23.07.2015 19:45 19,4 C 19,5 C 75 % 1011,7 hPa 0,0 mm 0,8 km/h (0 Bft) O-NO 67 14,8 C 0,0 km/h (0 Bft)
23.07.2015 19:50 19,3 C 19,4 C 75 % 1011,5 hPa 0,0 mm 0,5 km/h (0 Bft) SO 135 14,8 C 0,0 km/h (0 Bft)
23.07.2015 19:55 19,3 C 19,3 C 76 % 1011,5 hPa 0,0 mm 0,8 km/h (0 Bft) NO 45 15,0 C 2,6 km/h (1 Bft)
23.07.2015 20:00 19,2 C 19,3 C 75 % 1011,5 hPa 0,0 mm 0,8 km/h (0 Bft) NO 45 14,7 C 0,0 km/h (0 Bft)
23.07.2015 20:05 19,2 C 19,3 C 76 % 1011,5 hPa 0,0 mm 0,3 km/h (0 Bft) O-NO 67 14,9 C 0,0 km/h (0 Bft)
23.07.2015 20:10 19,2 C 19,2 C 76 % 1011,5 hPa 0,0 mm 0,0 km/h (0 Bft) O-NO 67 14,9 C 0,0 km/h (0 Bft)
23.07.2015 20:15 19,1 C 19,2 C 76 % 1011,5 hPa 0,0 mm 0,3 km/h (0 Bft) O-SO 112 14,8 C 0,0 km/h (0 Bft)
23.07.2015 20:20 19,1 C 19,2 C 76 % 1011,5 hPa 0,0 mm 0,3 km/h (0 Bft) O 90 14,8 C 0,0 km/h (0 Bft)
23.07.2015 20:25 19,1 C 19,2 C 76 % 1011,5 hPa 0,0 mm 0,0 km/h (0 Bft) O-SO 112 14,8 C 0,0 km/h (0 Bft)
23.07.2015 20:30 19,1 C 19,2 C 76 % 1011,6 hPa 0,0 mm 0,0 km/h (0 Bft) O-SO 112 14,8 C 0,0 km/h (0 Bft)
23.07.2015 20:35 19,1 C 19,2 C 76 % 1011,6 hPa 0,0 mm 0,0 km/h (0 Bft) O-SO 112 14,8 C 0,0 km/h (0 Bft)
23.07.2015 20:40 19,0 C 19,1 C 76 % 1011,6 hPa 0,0 mm 0,0 km/h (0 Bft) O-NO 67 14,7 C 0,0 km/h (0 Bft)
23.07.2015 20:43 19,0 C 19,1 C 76 % 1011,6 hPa 0,0 mm 0,0 km/h (0 Bft) SW 225 14,7 C 0,0 km/h (0 Bft)
23.07.2015 20:45 19,0 C 19,1 C 76 % 1011,6 hPa 0,0 mm 0,0 km/h (0 Bft) SW 225 14,7 C 0,0 km/h (0 Bft)
23.07.2015 20:50 18,9 C 18,9 C 77 % 1011,6 hPa 0,0 mm 0,0 km/h (0 Bft) W 270 14,8 C 0,0 km/h (0 Bft)
23.07.2015 20:55 18,8 C 18,9 C 78 % 1011,6 hPa 0,0 mm 0,0 km/h (0 Bft) O-NO 67 14,9 C 0,0 km/h (0 Bft)
23.07.2015 21:00 18,7 C 18,8 C 78 % 1011,6 hPa 0,0 mm 0,3 km/h (0 Bft) O-NO 67 14,8 C 4,1 km/h (1 Bft)
23.07.2015 21:05 18,7 C 18,7 C 78 % 1011,6 hPa 0,0 mm 0,5 km/h (0 Bft) O 90 14,8 C 2,6 km/h (1 Bft)
23.07.2015 21:10 18,7 C 18,7 C 78 % 1011,6 hPa 0,0 mm 0,3 km/h (0 Bft) NO 45 14,8 C 0,0 km/h (0 Bft)
23.07.2015 21:15 18,5 C 18,5 C 78 % 1011,6 hPa 0,0 mm 0,0 km/h (0 Bft) O 90 14,6 C 0,0 km/h (0 Bft)
23.07.2015 21:20 18,4 C 18,4 C 77 % 1011,6 hPa 0,0 mm 0,0 km/h (0 Bft) SW 225 14,3 C 0,0 km/h (0 Bft)
23.07.2015 21:25 18,3 C 18,3 C 77 % 1011,6 hPa 0,0 mm 0,0 km/h (0 Bft) S 180 14,2 C 0,0 km/h (0 Bft)
23.07.2015 21:30 18,2 C 18,2 C 77 % 1011,6 hPa 0,0 mm 0,0 km/h (0 Bft) S 180 14,1 C 0,0 km/h (0 Bft)
23.07.2015 21:35 18,2 C 18,2 C 77 % 1011,6 hPa 0,0 mm 0,0 km/h (0 Bft) S-SO 157 14,1 C 0,0 km/h (0 Bft)
23.07.2015 21:40 18,1 C 18,2 C 77 % 1011,6 hPa 0,0 mm 0,0 km/h (0 Bft) S-SO 157 14,0 C 0,0 km/h (0 Bft)
23.07.2015 21:45 18,1 C 18,1 C 77 % 1011,6 hPa 0,0 mm 0,0 km/h (0 Bft) S-SO 157 14,0 C 0,0 km/h (0 Bft)
23.07.2015 21:50 18,1 C 18,1 C 77 % 1011,8 hPa 0,0 mm 0,0 km/h (0 Bft) S-SO 157 14,0 C 0,0 km/h (0 Bft)
23.07.2015 21:55 18,0 C 18,0 C 77 % 1011,8 hPa 0,0 mm 0,0 km/h (0 Bft) S-SO 157 13,9 C 0,0 km/h (0 Bft)
23.07.2015 22:00 18,0 C 17,9 C 78 % 1011,8 hPa 0,0 mm 0,0 km/h (0 Bft) S 180 14,1 C 0,0 km/h (0 Bft)
23.07.2015 22:05 18,0 C 18,0 C 78 % 1011,8 hPa 0,0 mm 0,0 km/h (0 Bft) O-SO 112 14,1 C 0,0 km/h (0 Bft)
23.07.2015 22:10 18,0 C 17,9 C 78 % 1011,9 hPa 0,0 mm 0,0 km/h (0 Bft) O-SO 112 14,1 C 0,0 km/h (0 Bft)
23.07.2015 22:15 18,0 C 17,9 C 79 % 1011,9 hPa 0,0 mm 0,0 km/h (0 Bft) S-SO 157 14,3 C 0,0 km/h (0 Bft)
23.07.2015 22:20 17,9 C 17,8 C 79 % 1011,9 hPa 0,0 mm 0,0 km/h (0 Bft) O-SO 112 14,2 C 0,0 km/h (0 Bft)
23.07.2015 22:25 17,9 C 17,8 C 79 % 1011,9 hPa 0,0 mm 0,0 km/h (0 Bft) S-SO 157 14,2 C 0,0 km/h (0 Bft)
23.07.2015 22:30 17,9 C 17,8 C 79 % 1011,8 hPa 0,0 mm 0,0 km/h (0 Bft) O-SO 112 14,2 C 0,0 km/h (0 Bft)
23.07.2015 22:35 17,8 C 17,7 C 78 % 1011,8 hPa 0,0 mm 0,0 km/h (0 Bft) NW 315 13,9 C 0,0 km/h (0 Bft)
23.07.2015 22:40 17,8 C 17,7 C 78 % 1011,8 hPa 0,0 mm 0,0 km/h (0 Bft) NO 45 13,9 C 0,0 km/h (0 Bft)
23.07.2015 22:45 17,7 C 17,6 C 78 % 1011,8 hPa 0,0 mm 0,0 km/h (0 Bft) SO 135 13,8 C 0,0 km/h (0 Bft)
23.07.2015 22:50 17,7 C 17,6 C 78 % 1011,6 hPa 0,0 mm 0,3 km/h (0 Bft) S-SO 157 13,8 C 0,0 km/h (0 Bft)
23.07.2015 22:55 17,7 C 17,6 C 78 % 1011,6 hPa 0,0 mm 0,3 km/h (0 Bft) S 180 13,8 C 0,0 km/h (0 Bft)
23.07.2015 23:00 17,7 C 17,6 C 77 % 1011,6 hPa 0,0 mm 0,0 km/h (0 Bft) S 180 13,6 C 0,0 km/h (0 Bft)
23.07.2015 23:05 17,7 C 17,6 C 77 % 1011,6 hPa 0,0 mm 0,0 km/h (0 Bft) S-SO 157 13,6 C 0,0 km/h (0 Bft)
23.07.2015 23:10 17,7 C 17,6 C 77 % 1011,4 hPa 0,0 mm 0,0 km/h (0 Bft) S-SO 157 13,6 C 0,0 km/h (0 Bft)
23.07.2015 23:15 17,7 C 17,6 C 78 % 1011,4 hPa 0,0 mm 0,0 km/h (0 Bft) S-SO 157 13,8 C 0,0 km/h (0 Bft)
23.07.2015 23:20 17,7 C 17,6 C 78 % 1011,4 hPa 0,0 mm 0,0 km/h (0 Bft) S-SO 157 13,8 C 0,0 km/h (0 Bft)
23.07.2015 23:25 17,6 C 17,6 C 78 % 1011,4 hPa 0,0 mm 0,3 km/h (0 Bft) SO 135 13,7 C 2,8 km/h (1 Bft)
23.07.2015 23:30 17,6 C 17,7 C 77 % 1011,3 hPa 0,0 mm 0,3 km/h (0 Bft) S-SO 157 13,5 C 0,0 km/h (0 Bft)
23.07.2015 23:35 17,6 C 17,6 C 78 % 1011,3 hPa 0,0 mm 0,3 km/h (0 Bft) S-SO 157 13,7 C 0,0 km/h (0 Bft)
23.07.2015 23:40 17,6 C 17,6 C 77 % 1011,3 hPa 0,0 mm 0,0 km/h (0 Bft) W-NW 292 13,5 C 0,0 km/h (0 Bft)
23.07.2015 23:45 17,6 C 17,6 C 78 % 1011,3 hPa 0,0 mm 0,0 km/h (0 Bft) S-SO 157 13,7 C 2,6 km/h (1 Bft)
23.07.2015 23:50 17,6 C 17,6 C 78 % 1011,4 hPa 0,0 mm 1,3 km/h (1 Bft) SO 135 13,7 C 3,6 km/h (1 Bft)
23.07.2015 23:55 17,6 C 17,7 C 77 % 1011,4 hPa 0,0 mm 2,6 km/h (1 Bft) SO 135 13,5 C 3,1 km/h (1 Bft)
_ Min-Zeit 23:55 23:50 09:25 00:45 - 23:45 - - 01:45 23:40
Minimum _ 17,6 C 17,6 C 67 % 1010,4 hPa - 0,0 km/h (0 Bft) - - 12,6 C 0,0 km/h (0 Bft)
_ Max-Zeit 09:20 09:20 22:30 11:25 23:55 14:25 - - 13:20 12:20
Maximum _ 23,4 C 29,7 C 79 % 1013,0 hPa 0,0 mm 14,5 km/h
W-NW (3 Bft)
- - 17,4 C 28,0 km/h
W (4 Bft)
Durchschnitt _ 19,7 C 20,9 C 74 % 1011,8 hPa #0,0 mm 4,1 km/h (1 Bft) W - 14,9 C 5,4 km/h (1 Bft)